This demonstration page uses our WeatherBlox Daily Observations layout. Learn more.

Left ArrowRight Arrow

53.62937, 11.41316

Hourly Observations for April 21, 2018

Temp ( °F °C ) Dew Point ( °F °C ) Humidity (%) Winds ( mph kmh ) Pressure ( in mb ) Visibility ( mi km ) Precip ( " mm )
6:50 am 06:50 Partly Cloudy with Mist and Fog 46 8 46 8 100 100 VRB 2 4 30.12 1020 1 2 N/A
7:50 am 07:50 Partly Cloudy with Mist and Fog 50 10 48 9 94 94 VRB 2 4 30.15 1021 2 4 N/A
8:50 am 08:50 Partly Cloudy with Mist and Fog 54 12 48 9 82 82 N N/A 30.15 1021 3 5 N/A
9:20 am 09:20 Mostly Sunny 54 12 48 9 82 82 W 5 7 30.15 1021 4 7 N/A
9:50 am 09:50 Mostly Sunny 57 14 46 8 67 67 VRB 3 6 30.15 1021 7 11 N/A
10:20 am 10:20 Mostly Sunny 59 15 45 7 59 59 VRB 1 2 30.18 1022 7 11 N/A
10:50 am 10:50 Mostly Sunny 61 16 46 8 59 59 VRB 3 6 30.18 1022 7 11 N/A
11:20 am 11:20 Mostly Sunny 61 16 45 7 55 55 VRB 5 7 30.18 1022 7 11 N/A
11:50 am 11:50 Mostly Sunny 61 16 46 8 59 59 WNW 5 7 30.18 1022 7 11 N/A
12:20 pm 12:20 Mostly Sunny 63 17 46 8 56 56 WSW 7 11 30.18 1022 7 11 N/A
12:50 pm 12:50 Mostly Sunny 63 17 43 6 49 49 WNW 8 13 30.18 1022 30 48 N/A
1:20 pm 13:20 Mostly Sunny 64 18 43 6 46 46 WNW 5 7 30.15 1021 7 11 N/A
1:50 pm 13:50 Mostly Sunny 64 18 43 6 46 46 WNW 6 9 30.15 1021 30 48 N/A
2:20 pm 14:20 Mostly Sunny 64 18 43 6 46 46 NW 6 9 30.15 1021 7 11 N/A
2:50 pm 14:50 Mostly Sunny 66 19 41 5 40 40 W 7 11 30.15 1021 7 11 N/A
3:20 pm 15:20 Mostly Sunny 66 19 41 5 40 40 WNW 7 11 30.15 1021 7 11 N/A
3:50 pm 15:50 Mostly Sunny 66 19 41 5 40 40 W 6 9 30.15 1021 7 11 N/A
4:20 pm 16:20 Mostly Sunny 66 19 43 6 43 43 VRB 5 7 30.12 1020 7 11 N/A
4:50 pm 16:50 Mostly Sunny 64 18 43 6 46 46 W 7 11 30.12 1020 7 11 N/A
5:20 pm 17:20 Mostly Sunny 66 19 43 6 43 43 VRB 6 9 30.12 1020 7 11 N/A
5:50 pm 17:50 Mostly Sunny 64 18 41 5 43 43 W 6 9 30.12 1020 7 11 N/A
6:20 pm 18:20 Mostly Sunny 64 18 41 5 43 43 WNW 6 9 30.12 1020 7 11 N/A
6:50 pm 18:50 Mostly Sunny 64 18 41 5 43 43 NW 5 7 30.12 1020 7 11 N/A
7:20 pm 19:20 Mostly Sunny 63 17 37 3 39 39 NW 3 6 30.12 1020 7 11 N/A
7:50 pm 19:50 Mostly Sunny 61 16 39 4 45 45 E 6 9 30.12 1020 7 11 N/A
8:20 pm 20:20 Mostly Sunny 59 15 45 7 59 59 ENE 5 7 30.12 1020 7 11 N/A
8:50 pm 20:50 Mostly Clear 55 13 45 7 67 67 VRB 1 2 30.12 1020 7 11 N/A

Powered by AerisWeather